Regional Weather Roundup
Issued by NWS

Home | Current Version | Previous Version | Graphics & Text | Print | Product List | Glossary On
Versions: 1 2 3 4 5 6 7 8 9 10 11 12 13 14 15 16 17 18 19 20 21 22 23 24 25 26 27 28 29 30 31 32 33 34 35 36 37 38 39 40 41 42 43 44 45 46 47 48 49 50
000
ASUS43 KIND 241409
RWRIN

WEATHER ROUNDUP FOR INDIANA
NATIONAL WEATHER SERVICE INDIANAPOLIS IN
1000 AM EDT THU JUL 24 2014

NOTE: "FAIR" INDICATES FEW OR NO CLOUDS BELOW 12,000 FEET WITH NO
SIGNIFICANT WEATHER AND/OR OBSTRUCTIONS TO VISIBILITY.

* - STATION DOES NOT REPORT WEATHER SUCH AS PRECIPITATION OR FOG.

+ - STATION NOT QUALITY CONTROLLED BY THE NATIONAL WEATHER SERVICE.
    USE DATA WITH CAUTION...ESPECIALLY DEWPOINT AND RELATIVE
    HUMIDITY OBSERVATIONS.

INZ001>003-010>013-019-020-241500-
NORTHWEST INDIANA

CITY           SKY/WX    TMP DP  RH WIND       PRES   REMARKS
GARY /AIRPORT/ MOSUNNY   68  59  73 NE9       30.17S
RENSSELAER +   SUNNY     64  61  88 NE9       30.15S
VALPARAISO     SUNNY     67  57  70 NE8       30.16S

$$

LMZ046-743>745-241500-
SOUTHERN LAKE MICHIGAN

STATION/POSITION TIME  TEMP WIND        PRES
                       AIR  DIR/SP/G
                 (UTC) (F)  (DEG/KT/KT) (MB)
MICHIGAN CITY    1400   65  340/ 10/ 13   N/A

$$

INZ004-005-014>016-021>024-241500-
NORTH CENTRAL INDIANA

CITY           SKY/WX    TMP DP  RH WIND       PRES   REMARKS
ELKHART        MOSUNNY   66  54  63 NE6       30.16S
GOSHEN         PTSUNNY   66  56  70 NE8       30.15S
PERU/GRISSOM   SUNNY     66  57  72 NE13      30.13S
ROCHESTER +    SUNNY     68  55  64 E9        30.15S
SOUTH BEND     SUNNY     68  54  60 NE8       30.16S

$$

INZ006>009-017-018-025>027-241500-
NORTHEAST INDIANA

CITY           SKY/WX    TMP DP  RH WIND       PRES   REMARKS
ANGOLA *+      PTSUNNY   66  57  72 NE5       30.14S
FORT WAYNE     MOSUNNY   68  52  56 NE10      30.13S
HUNTINGTON +   SUNNY     66  54  63 E7        30.13S

$$

INZ028-029-035-036-043>045-051>053-241500-
WEST CENTRAL INDIANA

CITY           SKY/WX    TMP DP  RH WIND       PRES   REMARKS
GREENCASTLE +  MOSUNNY   64  59  82 NE6       30.12S
LAFAYETTE      SUNNY     65  58  78 N6        30.13S
TERRE HAUTE    SUNNY     66  58  75 N6        30.12R

$$

INZ030>032-037>040-046>048-054>057-064-065-241500-
CENTRAL INDIANA

CITY           SKY/WX    TMP DP  RH WIND       PRES   REMARKS
COLUMBUS       SUNNY     64  59  82 NE12      30.10
FRANKFORT +    MOSUNNY   64  64 100 N6        30.14
INDIANAPOLIS   MOSUNNY   65  57  75 NE14      30.10R
-EAGLE CREEK   MOSUNNY   65  56  72 NE8       30.11R
KOKOMO *+      SUNNY     66  57  72 E13       30.12F
MT COMFORT *+  PTSUNNY   66  66 100 NE8       30.11F
SHELBYVILLE    MOSUNNY   68  58  70 NE9       30.10R

$$

INZ033-034-041-042-049-050-058-059-241500-
EAST CENTRAL INDIANA

CITY           SKY/WX    TMP DP  RH WIND       PRES   REMARKS
MUNCIE         SUNNY     66  55  67 NE10      30.12R

$$

INZ060-061-067>069-081>083-085>088-241500-
SOUTHWEST INDIANA

CITY           SKY/WX    TMP DP  RH WIND       PRES   REMARKS
EVANSVILLE     MOSUNNY   68  58  70 N9        30.08R
HUNTINGBURG *+ MOSUNNY   70  61  73 E12       30.07S

$$

INZ062-063-066-070>080-084-089>092-241500-
SOUTH CENTRAL AND SOUTHEAST INDIANA

CITY           SKY/WX    TMP DP  RH WIND       PRES   REMARKS
BLOOMINGTON    SUNNY     68  58  70 NE12      30.10R

$$




USA.gov is the U.S. government's official web portal to all federal, state and local government web resources and services.